| time (UTC) | temp F | wind direction | speed MPH | gust MPH | rain 1hr in | rain 24hr in | rain mn in | humidity % | barometer mb |
| 20260831150530 | 86 | 51 | 0.0 | 6.0 | 0.00 | 0.00 | 0.00 | 67 | 1020.2 |
| 20260831150050 | 86 | 0 | 1.0 | 6.0 | 0.00 | 0.00 | 0.00 | 67 | 1020.3 |
| 20260831145526 | 87 | 186 | 0.0 | 5.0 | 0.00 | 0.00 | 0.00 | 67 | 1020.2 |
| 20260831145027 | 86 | 153 | 1.0 | 5.0 | 0.00 | 0.00 | 0.00 | 69 | 1020.2 |
| 20260831144600 | 85 | 0 | 0.0 | 5.0 | 0.00 | 0.00 | 0.00 | 70 | 1020.2 |
| 20260831144030 | 84 | 348 | 0.0 | 5.0 | 0.00 | 0.00 | 0.00 | 70 | 1020.3 |
| 20260831143529 | 84 | 20 | 2.0 | 5.0 | 0.00 | 0.00 | 0.00 | 70 | 1020.3 |
| 20260831143051 | 85 | 62 | 0.0 | 4.0 | 0.00 | 0.00 | 0.00 | 70 | 1020.2 |
| 20260831142528 | 85 | 0 | 0.0 | 5.0 | 0.00 | 0.00 | 0.00 | 71 | 1020.3 |
| 20260831142028 | 84 | 39 | 0.0 | 5.0 | 0.00 | 0.00 | 0.00 | 71 | 1020.1 |
| 20260831141549 | 84 | 102 | 0.0 | 2.0 | 0.00 | 0.00 | 0.00 | 72 | 1020.0 |
| 20260831141028 | 84 | 0 | 0.0 | 3.0 | 0.00 | 0.00 | 0.00 | 71 | 1020.0 |
| 20260831140531 | 84 | 0 | 1.0 | 3.0 | 0.00 | 0.00 | 0.00 | 71 | 1020.0 |
| 20260831140053 | 84 | 0 | 0.0 | 6.0 | 0.00 | 0.00 | 0.00 | 72 | 1019.9 |
| 20260831135528 | 84 | 119 | 1.0 | 6.0 | 0.00 | 0.00 | 0.00 | 72 | 1020.0 |
| 20260831135031 | 83 | 0 | 0.0 | 5.0 | 0.00 | 0.00 | 0.00 | 73 | 1020.0 |
| 20260831134550 | 83 | 178 | 0.0 | 4.0 | 0.00 | 0.00 | 0.00 | 73 | 1020.0 |
| 20260831134030 | 82 | 184 | 2.0 | 5.0 | 0.00 | 0.00 | 0.00 | 74 | 1020.0 |
| 20260831133529 | 82 | 188 | 0.0 | 5.0 | 0.00 | 0.00 | 0.00 | 75 | 1020.0 |
| 20260831133048 | 82 | 231 | 1.0 | 5.0 | 0.00 | 0.00 | 0.00 | 75 | 1020.0 |
| 20260831132528 | 82 | 182 | 0.0 | 2.0 | 0.00 | 0.00 | 0.00 | 76 | 1020.1 |
| 20260831132029 | 82 | 192 | 0.0 | 4.0 | 0.00 | 0.00 | 0.00 | 76 | 1019.9 |
| 20260831131555 | 81 | 0 | 0.0 | 4.0 | 0.00 | 0.00 | 0.00 | 77 | 1019.9 |
| 20260831131032 | 80 | 171 | 0.0 | 4.0 | 0.00 | 0.00 | 0.00 | 78 | 1019.8 |
| 20260831130528 | 80 | 168 | 0.0 | 4.0 | 0.00 | 0.00 | 0.00 | 78 | 1019.9 |
| 20260831130100 | 80 | 0 | 0.0 | 2.0 | 0.00 | 0.00 | 0.00 | 79 | 1019.8 |
| 20260831125533 | 79 | 182 | 0.0 | 3.0 | 0.00 | 0.00 | 0.00 | 80 | 1019.8 |
| 20260831125029 | 79 | 160 | 1.0 | 3.0 | 0.00 | 0.00 | 0.00 | 81 | 1019.7 |
| 20260831124551 | 78 | 188 | 0.0 | 5.0 | 0.00 | 0.00 | 0.00 | 81 | 1019.8 |
| 20260831124028 | 77 | 0 | 1.0 | 5.0 | 0.00 | 0.00 | 0.00 | 83 | 1019.7 |
| 20260831123530 | 77 | 188 | 1.0 | 5.0 | 0.00 | 0.00 | 0.00 | 84 | 1019.7 |
| 20260831123058 | 76 | 0 | 1.0 | 3.0 | 0.00 | 0.00 | 0.00 | 85 | 1019.6 |
| 20260831122528 | 75 | 178 | 0.0 | 2.0 | 0.00 | 0.00 | 0.00 | 86 | 1019.5 |
| 20260831122029 | 75 | 172 | 0.0 | 2.0 | 0.00 | 0.00 | 0.00 | 87 | 1019.5 |
| 20260831121555 | 74 | 179 | 0.0 | 2.0 | 0.00 | 0.00 | 0.00 | 88 | 1019.4 |
| 20260831121028 | 74 | 0 | 0.0 | 3.0 | 0.00 | 0.00 | 0.00 | 88 | 1019.4 |
| 20260831120527 | 74 | 198 | 1.0 | 3.0 | 0.00 | 0.00 | 0.00 | 88 | 1019.5 |
| 20260831120056 | 74 | 166 | 0.0 | 3.0 | 0.00 | 0.00 | 0.00 | 88 | 1019.3 |
| 20260831115530 | 74 | 167 | 1.0 | 3.0 | 0.00 | 0.00 | 0.00 | 88 | 1019.2 |
| 20260831115029 | 74 | 157 | 1.0 | 2.0 | 0.00 | 0.00 | 0.00 | 88 | 1019.2 |
| 20260831114551 | 74 | 160 | 0.0 | 2.0 | 0.00 | 0.00 | 0.00 | 88 | 1019.2 |
| 20260831114029 | 74 | 161 | 0.0 | 2.0 | 0.00 | 0.00 | 0.00 | 88 | 1019.1 |
| 20260831113532 | 74 | 0 | 0.0 | 2.0 | 0.00 | 0.00 | 0.00 | 88 | 1019.0 |
| 20260831113049 | 73 | 167 | 0.0 | 2.0 | 0.00 | 0.00 | 0.00 | 89 | 1018.9 |
| 20260831112530 | 73 | 0 | 0.0 | 2.0 | 0.00 | 0.00 | 0.00 | 89 | 1018.8 |
| 20260831112036 | 73 | 0 | 0.0 | 0.0 | 0.00 | 0.00 | 0.00 | 89 | 1018.9 |
| 20260831111555 | 73 | 0 | 0.0 | 0.0 | 0.00 | 0.00 | 0.00 | 89 | 1018.8 |
| 20260831111028 | 74 | 0 | 0.0 | 0.0 | 0.00 | 0.00 | 0.00 | 88 | 1018.7 |
| 20260831110529 | 74 | 0 | 0.0 | 1.0 | 0.00 | 0.00 | 0.00 | 88 | 1018.7 |
| 20260831110054 | 74 | 0 | 0.0 | 2.0 | 0.00 | 0.00 | 0.00 | 88 | 1018.7 |
| 20260831105531 | 74 | 0 | 0.0 | 2.0 | 0.00 | 0.00 | 0.00 | 88 | 1018.6 |
| 20260831105032 | 74 | 174 | 0.0 | 2.0 | 0.00 | 0.00 | 0.00 | 88 | 1018.6 |
| 20260831104611 | 74 | 192 | 0.0 | 2.0 | 0.00 | 0.00 | 0.00 | 88 | 1018.5 |
| 20260831104032 | 74 | 157 | 0.0 | 3.0 | 0.00 | 0.00 | 0.00 | 87 | 1018.5 |
| 20260831103531 | 74 | 188 | 0.0 | 3.0 | 0.00 | 0.00 | 0.00 | 87 | 1018.4 |
| 20260831103046 | 74 | 173 | 0.0 | 3.0 | 0.00 | 0.00 | 0.00 | 87 | 1018.5 |
| 20260831102533 | 74 | 182 | 1.0 | 3.0 | 0.00 | 0.00 | 0.00 | 87 | 1018.4 |
| 20260831102034 | 74 | 165 | 0.0 | 4.0 | 0.00 | 0.00 | 0.00 | 87 | 1018.2 |
| 20260831101559 | 74 | 165 | 1.0 | 4.0 | 0.00 | 0.00 | 0.00 | 87 | 1018.2 |
| 20260831101030 | 74 | 180 | 1.0 | 3.0 | 0.00 | 0.00 | 0.00 | 87 | 1018.2 |
| 20260831100532 | 74 | 185 | 1.0 | 3.0 | 0.00 | 0.00 | 0.00 | 87 | 1018.2 |
| 20260831100108 | 74 | 193 | 1.0 | 3.0 | 0.00 | 0.00 | 0.00 | 87 | 1018.2 |
| 20260831095532 | 74 | 0 | 0.0 | 3.0 | 0.00 | 0.00 | 0.00 | 87 | 1018.1 |
| 20260831095032 | 74 | 0 | 1.0 | 4.0 | 0.00 | 0.00 | 0.00 | 87 | 1018.0 |
| 20260831094600 | 74 | 192 | 1.0 | 4.0 | 0.00 | 0.00 | 0.00 | 87 | 1017.9 |
| 20260831094030 | 74 | 0 | 1.0 | 3.0 | 0.00 | 0.00 | 0.00 | 88 | 1017.9 |
| 20260831093530 | 74 | 160 | 1.0 | 3.0 | 0.00 | 0.00 | 0.00 | 88 | 1017.8 |
| 20260831093103 | 74 | 184 | 0.0 | 3.0 | 0.00 | 0.00 | 0.00 | 88 | 1017.6 |
| 20260831092529 | 74 | 0 | 1.0 | 3.0 | 0.00 | 0.00 | 0.00 | 88 | 1017.7 |
| 20260831092028 | 74 | 0 | 1.0 | 3.0 | 0.00 | 0.00 | 0.00 | 88 | 1017.7 |
| 20260831091552 | 74 | 188 | 1.0 | 5.0 | 0.00 | 0.00 | 0.00 | 88 | 1017.7 |
| 20260831091031 | 74 | 179 | 1.0 | 5.0 | 0.00 | 0.00 | 0.00 | 88 | 1017.7 |
| 20260831090530 | 74 | 0 | 2.0 | 5.0 | 0.00 | 0.00 | 0.00 | 88 | 1017.8 |
| 20260831090052 | 74 | 207 | 2.0 | 4.0 | 0.00 | 0.00 | 0.00 | 88 | 1017.8 |
| 20260831085532 | 74 | 193 | 1.0 | 3.0 | 0.00 | 0.00 | 0.00 | 88 | 1017.8 |
| 20260831085031 | 74 | 0 | 0.0 | 2.0 | 0.00 | 0.00 | 0.00 | 88 | 1017.7 |
| 20260831084558 | 74 | 0 | 0.0 | 3.0 | 0.00 | 0.00 | 0.00 | 88 | 1017.8 |
| 20260831084031 | 74 | 215 | 0.0 | 3.0 | 0.00 | 0.00 | 0.00 | 87 | 1017.6 |
| 20260831083529 | 74 | 195 | 1.0 | 3.0 | 0.00 | 0.00 | 0.00 | 87 | 1017.7 |
| 20260831083056 | 74 | 177 | 0.0 | 2.0 | 0.00 | 0.00 | 0.00 | 87 | 1017.6 |
| 20260831082528 | 74 | 158 | 0.0 | 1.0 | 0.00 | 0.00 | 0.00 | 87 | 1017.6 |
| 20260831082029 | 74 | 178 | 0.0 | 2.0 | 0.00 | 0.00 | 0.00 | 87 | 1017.7 |
| 20260831081556 | 74 | 167 | 0.0 | 3.0 | 0.00 | 0.00 | 0.00 | 87 | 1017.6 |
| 20260831081032 | 74 | 169 | 0.0 | 3.0 | 0.00 | 0.00 | 0.00 | 87 | 1017.6 |
| 20260831080529 | 74 | 172 | 0.0 | 3.0 | 0.00 | 0.00 | 0.00 | 87 | 1017.6 |
| 20260831075527 | 74 | 165 | 0.0 | 3.0 | 0.00 | 0.00 | 0.00 | 87 | 1017.6 |
| 20260831075028 | 74 | 163 | 0.0 | 3.0 | 0.00 | 0.00 | 0.00 | 86 | 1017.6 |
| 20260831074553 | 74 | 157 | 0.0 | 2.0 | 0.00 | 0.00 | 0.00 | 86 | 1017.6 |
| 20260831074032 | 74 | 0 | 0.0 | 1.0 | 0.00 | 0.00 | 0.00 | 86 | 1017.6 |
| 20260831073528 | 74 | 0 | 0.0 | 1.0 | 0.00 | 0.00 | 0.00 | 86 | 1017.5 |
| 20260831073049 | 75 | 0 | 0.0 | 1.0 | 0.00 | 0.00 | 0.00 | 86 | 1017.6 |
| 20260831072528 | 75 | 166 | 0.0 | 1.0 | 0.00 | 0.00 | 0.00 | 86 | 1017.6 |
| 20260831072029 | 75 | 179 | 0.0 | 2.0 | 0.00 | 0.00 | 0.00 | 85 | 1017.6 |
| 20260831071558 | 75 | 176 | 0.0 | 2.0 | 0.00 | 0.00 | 0.00 | 85 | 1017.7 |
| 20260831071026 | 75 | 0 | 0.0 | 1.0 | 0.00 | 0.00 | 0.00 | 85 | 1017.7 |
| 20260831070529 | 75 | 171 | 0.0 | 1.0 | 0.00 | 0.00 | 0.00 | 85 | 1017.7 |
| 20260831070109 | 75 | 0 | 0.0 | 2.0 | 0.00 | 0.00 | 0.00 | 85 | 1017.8 |
| 20260831065526 | 75 | 170 | 0.0 | 2.0 | 0.00 | 0.00 | 0.00 | 85 | 1017.8 |
| 20260831065028 | 75 | 0 | 0.0 | 2.0 | 0.00 | 0.00 | 0.00 | 85 | 1017.8 |
| 20260831064548 | 75 | 0 | 0.0 | 0.0 | 0.00 | 0.00 | 0.00 | 85 | 1017.8 |
| 20260831064029 | 75 | 0 | 0.0 | 0.0 | 0.00 | 0.00 | 0.00 | 85 | 1017.8 |
| 20260831063527 | 75 | 0 | 0.0 | 0.0 | 0.00 | 0.00 | 0.00 | 85 | 1017.9 |
| 20260831063046 | 75 | 0 | 0.0 | 0.0 | 0.00 | 0.00 | 0.00 | 85 | 1017.9 |
| 20260831062530 | 75 | 0 | 0.0 | 0.0 | 0.00 | 0.00 | 0.00 | 84 | 1018.0 |
| 20260831062029 | 76 | 0 | 0.0 | 0.0 | 0.00 | 0.00 | 0.00 | 83 | 1018.1 |
| 20260831061559 | 76 | 0 | 0.0 | 3.0 | 0.00 | 0.00 | 0.00 | 83 | 1018.0 |
| 20260831061029 | 76 | 0 | 0.0 | 3.0 | 0.00 | 0.00 | 0.00 | 82 | 1018.1 |
| 20260831060527 | 76 | 0 | 0.0 | 2.0 | 0.00 | 0.00 | 0.00 | 82 | 1017.9 |
| 20260831060052 | 76 | 165 | 0.0 | 0.0 | 0.00 | 0.00 | 0.00 | 83 | 1018.0 |
| 20260831055530 | 76 | 0 | 0.0 | 2.0 | 0.00 | 0.00 | 0.00 | 82 | 1018.0 |
| 20260831055028 | 76 | 0 | 0.0 | 2.0 | 0.00 | 0.00 | 0.00 | 81 | 1017.9 |
| 20260831054551 | 77 | 153 | 0.0 | 1.0 | 0.00 | 0.00 | 0.00 | 81 | 1017.9 |
| 20260831054030 | 77 | 0 | 0.0 | 1.0 | 0.00 | 0.00 | 0.00 | 81 | 1018.0 |
| 20260831053529 | 77 | 155 | 0.0 | 2.0 | 0.00 | 0.00 | 0.00 | 80 | 1017.9 |
| 20260831053048 | 77 | 160 | 0.0 | 4.0 | 0.00 | 0.00 | 0.00 | 80 | 1018.0 |
| 20260831052528 | 77 | 0 | 0.0 | 4.0 | 0.00 | 0.00 | 0.00 | 79 | 1018.0 |
| 20260831052029 | 77 | 151 | 1.0 | 4.0 | 0.00 | 0.00 | 0.00 | 79 | 1018.0 |
| 20260831051558 | 77 | 172 | 1.0 | 4.0 | 0.00 | 0.00 | 0.00 | 79 | 1018.0 |
| 20260831051026 | 77 | 197 | 0.0 | 2.0 | 0.00 | 0.00 | 0.00 | 79 | 1018.0 |
| 20260831050530 | 77 | 0 | 0.0 | 2.0 | 0.00 | 0.00 | 0.00 | 79 | 1017.9 |
| 20260831050056 | 77 | 163 | 0.0 | 2.0 | 0.00 | 0.00 | 0.00 | 79 | 1018.0 |
| 20260831045530 | 78 | 155 | 0.0 | 3.0 | 0.00 | 0.00 | 0.00 | 78 | 1018.0 |
| 20260831045031 | 78 | 0 | 1.0 | 3.0 | 0.00 | 0.00 | 0.00 | 77 | 1018.0 |
| 20260831044556 | 78 | 0 | 0.0 | 2.0 | 0.00 | 0.00 | 0.00 | 77 | 1018.1 |
| 20260831044028 | 78 | 0 | 0.0 | 3.0 | 0.00 | 0.00 | 0.00 | 77 | 1018.1 |
| 20260831043527 | 78 | 172 | 0.0 | 3.0 | 0.00 | 0.00 | 0.00 | 77 | 1018.1 |
| 20260831043051 | 78 | 176 | 0.0 | 3.0 | 0.00 | 0.00 | 0.00 | 77 | 1018.1 |
| 20260831042531 | 78 | 159 | 0.0 | 4.0 | 0.00 | 0.00 | 0.00 | 77 | 1018.1 |
| 20260831042029 | 78 | 0 | 0.0 | 4.0 | 0.00 | 0.00 | 0.00 | 77 | 1017.9 |
| 20260831041604 | 78 | 170 | 0.0 | 4.0 | 0.00 | 0.00 | 0.00 | 77 | 1018.0 |
| 20260831041033 | 78 | 167 | 0.0 | 4.0 | 0.00 | 0.00 | 0.00 | 77 | 1017.9 |
| 20260831040531 | 78 | 169 | 1.0 | 4.0 | 0.00 | 0.00 | 0.00 | 76 | 1017.8 |
| 20260831040051 | 79 | 159 | 1.0 | 4.0 | 0.00 | 0.00 | 0.00 | 76 | 1017.8 |
| 20260831035532 | 79 | 165 | 2.0 | 4.0 | 0.00 | 0.00 | 0.00 | 76 | 1017.9 |
| 20260831035032 | 79 | 186 | 1.0 | 4.0 | 0.00 | 0.00 | 0.00 | 75 | 1017.9 |
| 20260831034547 | 79 | 162 | 0.0 | 4.0 | 0.00 | 0.00 | 0.00 | 75 | 1017.9 |
| 20260831034030 | 79 | 170 | 1.0 | 4.0 | 0.00 | 0.00 | 0.00 | 75 | 1017.9 |
| 20260831033528 | 79 | 155 | 0.0 | 4.0 | 0.00 | 0.00 | 0.00 | 75 | 1017.9 |
| 20260831033103 | 79 | 167 | 0.0 | 3.0 | 0.00 | 0.00 | 0.00 | 74 | 1018.0 |
| 20260831032532 | 79 | 0 | 1.0 | 3.0 | 0.00 | 0.00 | 0.00 | 74 | 1018.0 |
| 20260831032027 | 79 | 160 | 0.0 | 2.0 | 0.00 | 0.00 | 0.00 | 74 | 1018.0 |
| 20260831031556 | 80 | 165 | 0.0 | 3.0 | 0.00 | 0.00 | 0.00 | 74 | 1018.0 |
| 20260831031028 | 80 | 159 | 1.0 | 3.0 | 0.00 | 0.00 | 0.00 | 73 | 1018.1 |
| 20260831030531 | 80 | 179 | 1.0 | 3.0 | 0.00 | 0.00 | 0.00 | 72 | 1018.0 |
| 20260831025529 | 80 | 0 | 0.0 | 2.0 | 0.00 | 0.00 | 0.00 | 73 | 1018.1 |
| 20260831025029 | 80 | 0 | 0.0 | 2.0 | 0.00 | 0.00 | 0.00 | 73 | 1017.9 |
| 20260831024547 | 80 | 158 | 0.0 | 0.0 | 0.00 | 0.00 | 0.00 | 74 | 1018.0 |
| 20260831024031 | 80 | 153 | 0.0 | 2.0 | 0.00 | 0.00 | 0.00 | 73 | 1018.0 |
| 20260831023532 | 80 | 0 | 0.0 | 2.0 | 0.00 | 0.00 | 0.00 | 73 | 1018.0 |
| 20260831023047 | 80 | 144 | 0.0 | 2.0 | 0.00 | 0.00 | 0.00 | 73 | 1017.9 |
| 20260831022529 | 80 | 166 | 0.0 | 2.0 | 0.00 | 0.00 | 0.00 | 72 | 1018.0 |
| 20260831022032 | 80 | 160 | 0.0 | 2.0 | 0.00 | 0.00 | 0.00 | 72 | 1018.0 |
| 20260831021559 | 80 | 151 | 0.0 | 2.0 | 0.00 | 0.00 | 0.00 | 73 | 1017.9 |
| 20260831021032 | 80 | 0 | 0.0 | 3.0 | 0.00 | 0.00 | 0.00 | 72 | 1017.8 |
| 20260831020529 | 80 | 158 | 0.0 | 3.0 | 0.00 | 0.00 | 0.00 | 71 | 1017.8 |
| 20260831020056 | 80 | 156 | 1.0 | 3.0 | 0.00 | 0.00 | 0.00 | 71 | 1017.7 |
| 20260831015530 | 80 | 155 | 1.0 | 3.0 | 0.00 | 0.00 | 0.00 | 71 | 1017.9 |
| 20260831015028 | 79 | 172 | 0.0 | 2.0 | 0.00 | 0.00 | 0.00 | 73 | 1017.8 |
| 20260831014558 | 79 | 0 | 0.0 | 0.0 | 0.00 | 0.00 | 0.00 | 73 | 1017.7 |
| 20260831014048 | 79 | 0 | 0.0 | 0.0 | 0.00 | 0.00 | 0.00 | 73 | 1017.7 |
| 20260831013532 | 80 | 0 | 0.0 | 0.0 | 0.00 | 0.00 | 0.00 | 71 | 1017.6 |
| 20260831013058 | 80 | 0 | 0.0 | 0.0 | 0.00 | 0.00 | 0.00 | 71 | 1017.6 |
| 20260831012531 | 80 | 0 | 0.0 | 0.0 | 0.00 | 0.00 | 0.00 | 72 | 1017.4 |
| 20260831012032 | 80 | 0 | 0.0 | 0.0 | 0.00 | 0.00 | 0.00 | 71 | 1017.4 |
| 20260831011609 | 80 | 0 | 0.0 | 0.0 | 0.00 | 0.00 | 0.00 | 71 | 1017.4 |
| 20260831011030 | 81 | 0 | 0.0 | 0.0 | 0.00 | 0.00 | 0.00 | 71 | 1017.3 |
| 20260831010531 | 81 | 0 | 0.0 | 0.0 | 0.00 | 0.00 | 0.00 | 69 | 1017.3 |
| 20260831010053 | 81 | 0 | 0.0 | 0.0 | 0.00 | 0.00 | 0.00 | 68 | 1017.2 |
| 20260831005531 | 82 | 0 | 0.0 | 0.0 | 0.00 | 0.00 | 0.00 | 67 | 1017.2 |
| 20260831005032 | 82 | 0 | 0.0 | 0.0 | 0.00 | 0.00 | 0.00 | 66 | 1017.2 |
| 20260831004600 | 82 | 0 | 0.0 | 0.0 | 0.00 | 0.00 | 0.00 | 68 | 1017.2 |
| 20260831004033 | 82 | 0 | 0.0 | 0.0 | 0.00 | 0.00 | 0.00 | 67 | 1017.1 |
| 20260831003529 | 83 | 0 | 0.0 | 0.0 | 0.00 | 0.00 | 0.00 | 65 | 1017.0 |
| 20260831003059 | 83 | 0 | 0.0 | 0.0 | 0.00 | 0.00 | 0.00 | 65 | 1017.0 |
| 20260831002535 | 84 | 0 | 0.0 | 0.0 | 0.00 | 0.00 | 0.00 | 64 | 1017.0 |
| 20260831002028 | 84 | 0 | 0.0 | 0.0 | 0.00 | 0.00 | 0.00 | 62 | 1017.0 |
| 20260831001603 | 85 | 0 | 0.0 | 0.0 | 0.00 | 0.00 | 0.00 | 59 | 1017.1 |
| 20260831001031 | 86 | 0 | 0.0 | 0.0 | 0.00 | 0.00 | 0.00 | 57 | 1017.0 |
| 20260831000531 | 86 | 0 | 0.0 | 0.0 | 0.00 | 0.00 | 0.00 | 56 | 1017.0 |
| 20260831000052 | 87 | 0 | 0.0 | 0.0 | 0.00 | 0.00 | 0.00 | 56 | 1017.1 |
| 20260830235530 | 87 | 0 | 0.0 | 0.0 | 0.00 | 0.00 | 0.00 | 55 | 1017.0 |
| 20260830235030 | 88 | 0 | 0.0 | 0.0 | 0.00 | 0.00 | 0.00 | 55 | 1017.1 |
| 20260830234549 | 88 | 0 | 0.0 | 3.0 | 0.00 | 0.00 | 0.00 | 55 | 1017.1 |
| 20260830234032 | 88 | 0 | 0.0 | 3.0 | 0.00 | 0.00 | 0.00 | 53 | 1017.1 |
| 20260830233533 | 88 | 0 | 0.0 | 1.0 | 0.00 | 0.00 | 0.00 | 54 | 1017.0 |
| 20260830233106 | 89 | 0 | 0.0 | 1.0 | 0.00 | 0.00 | 0.00 | 54 | 1017.1 |
| 20260830232531 | 89 | 0 | 0.0 | 1.0 | 0.00 | 0.00 | 0.00 | 53 | 1017.0 |
| 20260830232032 | 89 | 0 | 0.0 | 1.0 | 0.00 | 0.00 | 0.00 | 53 | 1016.8 |
| 20260830231548 | 89 | 0 | 0.0 | 3.0 | 0.00 | 0.00 | 0.00 | 51 | 1016.9 |
| 20260830231028 | 90 | 0 | 0.0 | 3.0 | 0.00 | 0.00 | 0.00 | 50 | 1017.0 |
| 20260830230528 | 91 | 0 | 0.0 | 3.0 | 0.00 | 0.00 | 0.00 | 50 | 1016.9 |
| 20260830230046 | 91 | 0 | 0.0 | 2.0 | 0.00 | 0.00 | 0.00 | 49 | 1017.0 |
| 20260830225531 | 91 | 0 | 0.0 | 3.0 | 0.00 | 0.00 | 0.00 | 48 | 1016.8 |
| 20260830225031 | 92 | 0 | 0.0 | 3.0 | 0.00 | 0.00 | 0.00 | 48 | 1017.1 |
| 20260830224611 | 92 | 46 | 0.0 | 4.0 | 0.00 | 0.00 | 0.00 | 48 | 1017.1 |
| 20260830224031 | 92 | 0 | 0.0 | 5.0 | 0.00 | 0.00 | 0.00 | 47 | 1017.0 |
| 20260830223531 | 92 | 0 | 1.0 | 5.0 | 0.00 | 0.00 | 0.00 | 48 | 1016.9 |
| 20260830223055 | 92 | 0 | 0.0 | 3.0 | 0.00 | 0.00 | 0.00 | 47 | 1016.8 |
| 20260830222530 | 92 | 0 | 0.0 | 3.0 | 0.00 | 0.00 | 0.00 | 47 | 1016.8 |
| 20260830222031 | 93 | 247 | 0.0 | 3.0 | 0.00 | 0.00 | 0.00 | 48 | 1016.8 |
| 20260830221558 | 93 | 0 | 0.0 | 3.0 | 0.00 | 0.00 | 0.00 | 46 | 1016.9 |
| 20260830221030 | 94 | 0 | 0.0 | 3.0 | 0.00 | 0.00 | 0.00 | 46 | 1017.0 |
| 20260830220529 | 93 | 0 | 0.0 | 3.0 | 0.00 | 0.00 | 0.00 | 45 | 1017.1 |
| 20260830220054 | 93 | 0 | 0.0 | 3.0 | 0.00 | 0.00 | 0.00 | 45 | 1017.1 |
| 20260830215529 | 93 | 0 | 0.0 | 3.0 | 0.00 | 0.00 | 0.00 | 47 | 1017.2 |
| 20260830215029 | 93 | 176 | 0.0 | 4.0 | 0.00 | 0.00 | 0.00 | 47 | 1017.2 |
| 20260830214602 | 93 | 79 | 0.0 | 4.0 | 0.00 | 0.00 | 0.00 | 46 | 1017.2 |
| 20260830214031 | 92 | 4 | 0.0 | 6.0 | 0.00 | 0.00 | 0.00 | 45 | 1017.2 |
| 20260830213531 | 92 | 15 | 0.0 | 6.0 | 0.00 | 0.00 | 0.00 | 47 | 1017.3 |
| 20260830213051 | 92 | 328 | 1.0 | 6.0 | 0.00 | 0.00 | 0.00 | 46 | 1017.4 |
| 20260830212528 | 91 | 22 | 2.0 | 6.0 | 0.00 | 0.00 | 0.00 | 47 | 1017.4 |
| 20260830212031 | 92 | 0 | 1.0 | 5.0 | 0.00 | 0.00 | 0.00 | 47 | 1017.5 |
| 20260830211558 | 92 | 40 | 1.0 | 4.0 | 0.00 | 0.00 | 0.00 | 47 | 1017.5 |
| 20260830211031 | 92 | 0 | 1.0 | 4.0 | 0.00 | 0.00 | 0.00 | 48 | 1017.5 |
| 20260830210529 | 92 | 20 | 1.0 | 6.0 | 0.00 | 0.00 | 0.00 | 48 | 1017.4 |
| 20260830205530 | 92 | 16 | 0.0 | 8.0 | 0.00 | 0.00 | 0.00 | 48 | 1017.7 |
| 20260830205030 | 91 | 0 | 2.0 | 9.0 | 0.00 | 0.00 | 0.00 | 50 | 1017.7 |
| 20260830204554 | 91 | 59 | 4.0 | 9.0 | 0.00 | 0.00 | 0.00 | 49 | 1017.7 |
| 20260830204031 | 93 | 352 | 0.0 | 4.0 | 0.00 | 0.00 | 0.00 | 48 | 1017.7 |
| 20260830203530 | 92 | 185 | 0.0 | 9.0 | 0.00 | 0.00 | 0.00 | 48 | 1017.6 |
| 20260830203057 | 92 | 0 | 1.0 | 9.0 | 0.00 | 0.00 | 0.00 | 49 | 1017.7 |
| 20260830202531 | 93 | 0 | 2.0 | 8.0 | 0.00 | 0.00 | 0.00 | 50 | 1017.8 |
| 20260830202028 | 92 | 84 | 1.0 | 7.0 | 0.00 | 0.00 | 0.00 | 50 | 1017.7 |
| 20260830201558 | 91 | 32 | 2.0 | 5.0 | 0.00 | 0.00 | 0.00 | 50 | 1017.9 |
| 20260830201031 | 91 | 20 | 1.0 | 6.0 | 0.00 | 0.00 | 0.00 | 49 | 1017.9 |
| 20260830200533 | 92 | 0 | 2.0 | 6.0 | 0.00 | 0.00 | 0.00 | 49 | 1018.0 |
| 20260830200059 | 92 | 276 | 0.0 | 4.0 | 0.00 | 0.00 | 0.00 | 48 | 1018.1 |
| 20260830195528 | 91 | 0 | 0.0 | 7.0 | 0.00 | 0.00 | 0.00 | 49 | 1018.0 |
| 20260830195028 | 92 | 0 | 1.0 | 7.0 | 0.00 | 0.00 | 0.00 | 49 | 1018.0 |
| 20260830194557 | 92 | 181 | 3.0 | 7.0 | 0.00 | 0.00 | 0.00 | 50 | 1018.0 |
| 20260830194031 | 91 | 169 | 0.0 | 5.0 | 0.00 | 0.00 | 0.00 | 50 | 1018.1 |
| 20260830193529 | 91 | 171 | 1.0 | 6.0 | 0.00 | 0.00 | 0.00 | 50 | 1018.2 |
| 20260830193052 | 91 | 0 | 0.0 | 6.0 | 0.00 | 0.00 | 0.00 | 50 | 1018.3 |
| 20260830192530 | 90 | 198 | 2.0 | 6.0 | 0.00 | 0.00 | 0.00 | 50 | 1018.4 |
| 20260830192030 | 91 | 150 | 1.0 | 5.0 | 0.00 | 0.00 | 0.00 | 50 | 1018.4 |
| 20260830191550 | 92 | 0 | 0.0 | 3.0 | 0.00 | 0.00 | 0.00 | 51 | 1018.6 |
| 20260830191031 | 91 | 0 | 0.0 | 3.0 | 0.00 | 0.00 | 0.00 | 53 | 1018.8 |
| 20260830190531 | 90 | 303 | 0.0 | 3.0 | 0.00 | 0.00 | 0.00 | 52 | 1018.8 |
| 20260830190046 | 90 | 1 | 0.0 | 7.0 | 0.00 | 0.00 | 0.00 | 53 | 1018.8 |
| 20260830185531 | 89 | 133 | 3.0 | 8.0 | 0.00 | 0.00 | 0.00 | 54 | 1018.8 |
| 20260830185032 | 90 | 12 | 3.0 | 8.0 | 0.00 | 0.00 | 0.00 | 52 | 1019.0 |
| 20260830184554 | 91 | 315 | 0.0 | 6.0 | 0.00 | 0.00 | 0.00 | 52 | 1019.2 |
| 20260830184030 | 92 | 64 | 0.0 | 7.0 | 0.00 | 0.00 | 0.00 | 51 | 1019.2 |
| 20260830183530 | 92 | 180 | 2.0 | 9.0 | 0.00 | 0.00 | 0.00 | 51 | 1019.3 |
| 20260830183050 | 92 | 72 | 1.0 | 9.0 | 0.00 | 0.00 | 0.00 | 52 | 1019.2 |
| 20260830182531 | 92 | 217 | 2.0 | 8.0 | 0.00 | 0.00 | 0.00 | 51 | 1019.4 |
| 20260830182031 | 91 | 317 | 1.0 | 8.0 | 0.00 | 0.00 | 0.00 | 50 | 1019.4 |
| 20260830181548 | 92 | 215 | 1.0 | 6.0 | 0.00 | 0.00 | 0.00 | 50 | 1019.6 |
| 20260830181030 | 91 | 0 | 1.0 | 4.0 | 0.00 | 0.00 | 0.00 | 51 | 1019.7 |
| 20260830180532 | 89 | 340 | 2.0 | 7.0 | 0.00 | 0.00 | 0.00 | 53 | 1019.6 |
| 20260830175529 | 90 | 64 | 1.0 | 8.0 | 0.00 | 0.00 | 0.00 | 53 | 1019.8 |
| 20260830175030 | 90 | 29 | 1.0 | 9.0 | 0.00 | 0.00 | 0.00 | 54 | 1019.9 |
| 20260830174556 | 89 | 356 | 0.0 | 9.0 | 0.00 | 0.00 | 0.00 | 53 | 1019.9 |
| 20260830174028 | 88 | 8 | 2.0 | 7.0 | 0.00 | 0.00 | 0.00 | 52 | 1019.9 |
| 20260830173528 | 88 | 56 | 4.0 | 8.0 | 0.00 | 0.00 | 0.00 | 51 | 1019.9 |
| 20260830173051 | 89 | 0 | 3.0 | 8.0 | 0.00 | 0.00 | 0.00 | 50 | 1020.0 |
| 20260830172531 | 90 | 346 | 1.0 | 10.0 | 0.00 | 0.00 | 0.00 | 50 | 1020.0 |
| 20260830172032 | 89 | 0 | 2.0 | 10.0 | 0.00 | 0.00 | 0.00 | 54 | 1020.0 |
| 20260830171611 | 89 | 60 | 3.0 | 10.0 | 0.00 | 0.00 | 0.00 | 54 | 1019.9 |
| 20260830171030 | 88 | 32 | 1.0 | 4.0 | 0.00 | 0.00 | 0.00 | 54 | 1020.0 |
| 20260830170530 | 89 | 0 | 0.0 | 7.0 | 0.00 | 0.00 | 0.00 | 53 | 1020.1 |
| 20260830170101 | 87 | 56 | 4.0 | 8.0 | 0.00 | 0.00 | 0.00 | 55 | 1020.2 |
| 20260830165529 | 88 | 0 | 3.0 | 8.0 | 0.00 | 0.00 | 0.00 | 54 | 1020.3 |
| 20260830165032 | 89 | 19 | 1.0 | 8.0 | 0.00 | 0.00 | 0.00 | 54 | 1020.3 |
| 20260830164601 | 89 | 172 | 2.0 | 8.0 | 0.00 | 0.00 | 0.00 | 56 | 1020.3 |
| 20260830164030 | 90 | 0 | 0.0 | 8.0 | 0.00 | 0.00 | 0.00 | 56 | 1020.4 |
| 20260830163530 | 89 | 162 | 1.0 | 8.0 | 0.00 | 0.00 | 0.00 | 57 | 1020.4 |
| 20260830163049 | 89 | 172 | 2.0 | 11.0 | 0.00 | 0.00 | 0.00 | 57 | 1020.4 |
| 20260830162530 | 88 | 197 | 2.0 | 11.0 | 0.00 | 0.00 | 0.00 | 57 | 1020.4 |
| 20260830162032 | 88 | 230 | 4.0 | 11.0 | 0.00 | 0.00 | 0.00 | 57 | 1020.4 |
| 20260830161612 | 88 | 175 | 3.0 | 7.0 | 0.00 | 0.00 | 0.00 | 59 | 1020.5 |
| 20260830161032 | 88 | 159 | 1.0 | 7.0 | 0.00 | 0.00 | 0.00 | 59 | 1020.5 |
| 20260830160529 | 88 | 11 | 0.0 | 5.0 | 0.00 | 0.00 | 0.00 | 60 | 1020.4 |
| 20260830160058 | 87 | 117 | 0.0 | 5.0 | 0.00 | 0.00 | 0.00 | 62 | 1020.5 |
| 20260830155529 | 87 | 0 | 0.0 | 2.0 | 0.00 | 0.00 | 0.00 | 63 | 1020.4 |
| 20260830155030 | 87 | 49 | 0.0 | 5.0 | 0.00 | 0.00 | 0.00 | 64 | 1020.4 |
| 20260830154553 | 86 | 157 | 1.0 | 6.0 | 0.00 | 0.00 | 0.00 | 64 | 1020.5 |
| 20260830154029 | 86 | 172 | 1.0 | 7.0 | 0.00 | 0.00 | 0.00 | 64 | 1020.6 |
| 20260830153529 | 86 | 0 | 1.0 | 7.0 | 0.00 | 0.00 | 0.00 | 64 | 1020.6 |
| 20260830153052 | 85 | 221 | 2.0 | 7.0 | 0.00 | 0.00 | 0.00 | 66 | 1020.5 |
| 20260830152532 | 85 | 0 | 2.0 | 10.0 | 0.00 | 0.00 | 0.00 | 67 | 1020.4 |
| 20260830152029 | 84 | 225 | 3.0 | 10.0 | 0.00 | 0.00 | 0.00 | 66 | 1020.5 |
| 20260830151555 | 84 | 227 | 2.0 | 10.0 | 0.00 | 0.00 | 0.00 | 67 | 1020.4 |
| 20260830151027 | 83 | 139 | 2.0 | 7.0 | 0.00 | 0.00 | 0.00 | 69 | 1020.4 |